Location: Arrecife
(10.5858°N, 67.0742°W)
Time: 21:02:52
(UTC+00:00)

Hubble Space Telescope - Visible Passes

Search period start: 28 November 2022 00:00
Search period end: 08 December 2022 00:00
Orbit: 530 x 534 km, 28.5° (Epoch: 27 November)

Date Brightness Start Highest point End Pass type
(mag) Time Alt. Az. Time Alt. Az. Time Alt. Az.
29 Nov 3.5 09:59:50 10° SSW 10:02:34 17° SSE 10:05:19 10° ESE visible
30 Nov 3.1 09:46:40 10° SSW 09:49:57 23° SSE 09:53:13 10° E visible
01 Dec 2.5 09:33:41 10° SSW 09:37:19 31° SSE 09:40:57 10° E visible
02 Dec 1.9 09:20:48 10° SW 09:24:41 42° SSE 09:28:33 10° ENE visible
03 Dec 1.2 09:09:51 25° SW 09:12:03 59° SSE 09:16:04 10° ENE visible
04 Dec 0.6 08:59:04 72° SW 08:59:25 82° SSE 09:03:29 10° ENE visible
05 Dec 1.7 08:48:07 40° NE 08:48:07 40° NE 08:50:51 10° ENE visible
06 Dec 3.0 08:36:58 18° NE 08:36:58 18° NE 08:38:09 10° NE visible
07 Dec 2.9 10:01:32 10° NW 10:03:00 12° NNW 10:04:29 10° N visible
